Location: Newark
(45.7833°N, 9.1833°E)
Time: 09:22:48
(UTC+00:00)

ISS - Visible Passes

Search period start: 27 January 2020 00:00
Search period end: 06 February 2020 00:00
Orbit: 416 x 423 km, 51.6° (Epoch: 27 January)

Date Brightness Start Highest point End Pass type
(mag) Time Alt. Az. Time Alt. Az. Time Alt. Az.
27 Jan -2.4 18:16:22 10° WNW 18:19:21 30° N 18:19:21 30° N visible
28 Jan -2.6 17:28:37 10° WNW 17:31:45 34° NNW 17:33:46 18° NE visible
28 Jan -0.8 19:06:02 10° WNW 19:06:44 14° NW 19:06:44 14° NW visible
29 Jan -2.3 18:18:25 10° WNW 18:21:08 29° N 18:21:08 29° N visible
30 Jan -2.4 17:30:44 10° WNW 17:33:44 29° N 17:35:33 18° NE visible
30 Jan -0.8 19:07:46 10° NW 19:08:31 15° NW 19:08:31 15° NW visible
31 Jan -2.7 18:20:13 10° NW 18:22:57 35° N 18:22:57 35° N visible
01 Feb -2.7 17:32:36 10° WNW 17:35:42 32° N 17:37:25 20° ENE visible
01 Feb -1.0 19:09:25 10° WNW 19:10:23 18° WNW 19:10:23 18° WNW visible
02 Feb -3.5 18:21:51 10° WNW 18:24:54 57° N 18:24:54 57° N visible
03 Feb -3.3 17:34:16 10° NW 17:37:33 45° NNE 17:39:29 21° E visible
03 Feb -1.1 19:11:09 10° WNW 19:12:28 20° W 19:12:28 20° W visible
04 Feb -3.5 18:23:27 10° WNW 18:26:48 61° SSW 18:27:10 56° S visible
05 Feb -3.8 17:35:48 10° WNW 17:39:12 87° NNE 17:41:59 14° ESE visible
05 Feb -0.8 19:13:29 10° W 19:14:59 15° WSW 19:14:59 15° WSW visible
